Regional Weather Roundup
Issued by NWS

Home | Current Version | Previous Version | Graphics & Text | Print | Product List | Glossary On
Versions: 1 2 3 4 5 6 7 8 9 10 11 12 13 14 15 16 17 18 19 20 21 22 23 24 25 26 27 28 29 30 31 32 33 34 35 36 37 38 39 40 41 42 43 44 45 46 47 48 49 50
000
ASUS43 KMPX 010201
RWRMN
WEATHER ROUNDUP FOR MINNESOTA
NATIONAL WEATHER SERVICE TWIN CITIES/CHANHASSEN MN
900 PM CDT TUE SEP 30 2014


NOTE: "FAIR" INDICATES FEW OR NO CLOUDS BELOW 12,000 FEET WITH NO
SIGNIFICANT WEATHER AND/OR OBSTRUCTIONS TO VISIBILITY. N/A MEANS
CURRENT SKY AND/OR WEATHER CONDITIONS ARE NOT AVAILABLE.

MNZ060>063-068>070-010300-
   Twin Cities Metro

CITY           SKY/WX    TMP DP  RH WIND       PRES   REMARKS
TWIN CITIES    CLOUDY    53  44  71 SE12      29.91F
ST PAUL        MOCLDY    52  45  77 SE13      29.93S
CRYSTAL        MOCLDY    55  44  66 SE17G23   29.87F
BLAINE         MOCLDY    55  46  71 E15G23    29.89F
LAKEVILLE      MOCLDY    52  45  76 SE10      29.91F
EDEN PRAIRIE   CLOUDY    54  45  71 SE16      29.87F
SOUTH ST PAUL  MOCLDY    53  45  73 SE8       29.92F
LAKE ELMO      FAIR      50  45  81 SE7       29.94S
$$
MNZ001>005-007-008-013>017-022>024-027-028-010300-
   Northwest Minnesota

CITY           SKY/WX    TMP DP  RH WIND       PRES   REMARKS
BEMIDJI        CLOUDY    53  45  74 SE16G25   29.79S
HALLOCK        LGT RAIN  55  48  76 SE13G20   29.66F
ROSEAU         CLOUDY    57  46  67 SE13G20   29.73F
WARROAD        MOCLDY    54  46  76 SE12      29.77R
THIEF RVR FALL CLOUDY    55  43  62 SE17G25   29.69F
CROOKSTON      CLOUDY    57  46  67 SE18      29.68S
FOSSTON        CLOUDY    54  43  66 SE15G30   29.72S
DETROIT LAKES  CLOUDY    54  45  71 SE18      29.74F
PARK RAPIDS    CLOUDY    54  43  66 SE24      29.80R
MAHNOMEN       MOCLDY    55  45  69 SE25G31   29.71R
$$
MNZ006-009>011-018-025>026-010300-
   North Central Minnesota

CITY           SKY/WX    TMP DP  RH WIND       PRES   REMARKS
BAUDETTE       PTCLDY    53  42  66 SE10G21   29.78F
FLAG ISLAND    MOCLDY    55  46  71 SE14      29.76S
INTL FALLS     PTCLDY    48  42  80 SE9       29.85F
WASKISH        MOCLDY    52  43  71 SE8G17    29.82R
BIG FORK       PTCLDY    46  41  81 SE9G17    29.85F
LONGVILLE      CLOUDY    50  45  81 SE9G16    29.85R
GRAND RAPIDS   MOCLDY    45  39  81 SE13      29.88S
CRANE LAKE     PTCLDY    45  39  81 SE3       29.93S
ORR            CLEAR     45  37  76 SE8       29.88F
COOK           CLEAR     43  39  87 SE5       29.92F
WALKER         CLOUDY    54  42  64 SE9G18    29.83R
$$
MNZ012-019>021-037-010300-
   Northeast Minnesota

CITY           SKY/WX    TMP DP  RH WIND       PRES   REMARKS
DULUTH         CLOUDY    46  42  86 E15G24    29.97R
ELY            CLEAR     39  36  87 E5        29.96S
HIBBING        CLOUDY    44  39  82 SE14      29.92F
EVELETH        CLOUDY    43  39  87 E6        29.95S
DULUTH HARBOR  MOCLDY    48  45  87 E14       29.99R
TWO HARBORS    CLOUDY    45  39  81 E13       29.97S
SILVER BAY     CLEAR     41  41 100 NE7       29.99S
GRAND MARAIS     N/A     45  38  76 NE7       30.04R
G MARAIS ARPRT CLEAR     37  32  81 E6        30.02R
$$
MNZ029>031-032-039>041-046>048-054>057-064-010300-
   West Central Minnesota

CITY           SKY/WX    TMP DP  RH WIND       PRES   REMARKS
FERGUS FALLS   CLOUDY    57  46  67 SE20G28   29.71S
WHEATON        CLOUDY    55  48  76 SE17      29.70R
MORRIS         MOCLDY    57  50  77 SE18G25   29.72R
ALEXANDRIA     CLOUDY    53  46  77 SE20G26   29.78S
ELBOW LAKE     FAIR      55  48  78 SE17G29   29.72S
WADENA         CLOUDY    52  43  71 SE20G25   29.77F
GLENWOOD       CLOUDY    54  46  76 SE14G21   29.79R
APPLETON       CLOUDY    61  52  72 SE17G24   29.72R
BENSON         MOCLDY    57  52  82 S15G26    29.75R
ORTONVILLE     CLOUDY    61  54  77 SE18G26   29.69R
MADISON        PTCLDY    64  57  77 SE18G26   29.72R
WILLMAR        FAIR      57  50  77 SE16G22   29.81R
$$
MNZ033>034-036-042>043-049>051-058-059-010300-
   Central Minnesota

CITY           SKY/WX    TMP DP  RH WIND       PRES   REMARKS
ST CLOUD       CLOUDY    55  44  66 SE12      29.84F
SAUK CENTRE    CLOUDY    53  46  76 E9        29.81R
PAYNESVILLE    CLOUDY    52  46  80 E13       29.82R
AITKIN         MOCLDY    52  45  76 SE6       29.87R
PINE RIVER     CLOUDY    54  45  71 SE13G22   29.88R
BRAINERD       MOCLDY    53  44  71 S9G22     29.85S
STAPLES        CLOUDY    52  43  71 SE10G18   29.81S
LONG PRAIRIE   MOCLDY    52  45  76 E14       29.81S
LITTLE FALLS   CLOUDY    52  43  71 SE9       29.86R
LITCHFIELD     CLOUDY    57  52  82 SE14      29.83R
BUFFALO        CLOUDY    54  45  70 SE7       29.87R
MAPLE LAKE     CLOUDY    55  48  75 SE10      29.85R
$$
MNZ037-044-045-052-053-010300-
   East Central Minnesota

CITY           SKY/WX    TMP DP  RH WIND       PRES   REMARKS
MORA           MOCLDY    50  43  76 SE8       29.91S
CAMBRIDGE      MOCLDY    54  43  66 SE9       29.86F
RUSH CITY      MOCLDY    50  44  79 SE5       29.92R
MOOSE LAKE     MOCLDY    45  41  87 E3        29.91F
HINCKLEY       FAIR      52  45  76 SE5       29.92F
CLOQUET        MOCLDY    46  43  87 E15G24    29.94S
MCGREGOR       CLOUDY    45  43  93 E9G17     29.89F
$$
MNZ071>073-080-081-089-090-097-098-010300-
   Southwest Minnesota

CITY           SKY/WX    TMP DP  RH WIND       PRES   REMARKS
MONTEVIDEO     MOCLDY    59  55  88 S14G20    29.76R
GRANITE FALLS  MOCLDY    59  55  85 SE16G24   29.77S
CANBY          CLOUDY    62  58  85 SE17      29.72R
MARSHALL       PTCLDY    61  54  77 S17G23    29.75R
REDWOOD FALLS  CLOUDY    60  55  83 SE15      29.79R
OLIVIA         CLOUDY    59  54  82 SE10G16   29.80R
PIPESTONE      CLEAR     61  57  88 S13       29.75F
WINDOM         CLOUDY    59  55  88 SE9       29.81R
WORTHINGTON    CLOUDY    61  57  88 SE14G20   29.82R
JACKSON        CLOUDY    59  55  88 S12       29.83R
TRACY          MOCLDY    60  57  91 S13G18    29.77S
SLAYTON        CLOUDY    59  58  97 SE18G24   29.79S
$$
MNZ065>067-074>077-082>085-091>093-010300-
   South Central Minnesota

CITY           SKY/WX    TMP DP  RH WIND       PRES   REMARKS
MANKATO        CLOUDY    57  48  72 SE26G32   29.82F
NEW ULM        CLOUDY    59  55  88 SE13G18   29.81S
ST JAMES       CLOUDY    61  55  82 SE12      29.82F
FAIRMONT       CLOUDY    57  52  82 S13       29.84R
GLENCOE        CLOUDY    58  48  69 SE12      29.84R
FARIBAULT      CLOUDY    55  48  76 SE13      29.92F
OWATONNA       CLOUDY    57  48  72 SE10      29.91F
WASECA         RAIN      55  46  71 SE13      29.89F
ALBERT LEA     CLOUDY    57  50  77 SE6       29.93S
$$
MNZ078>079-086>088-094>096-010300-
   Southeast Minnesota

CITY           SKY/WX    TMP DP  RH WIND       PRES   REMARKS
ROCHESTER      CLOUDY    51  46  83 SE16      29.92F
RED WING       PTCLDY    54  45  71 SE9G18    29.93S
STANTON        MOCLDY    53  46  76 CALM      29.94R
DODGE CENTER   CLOUDY    54  46  76 W10       29.96R
WINONA         PTCLDY    48  45  87 SE12      29.98S
AUSTIN         CLOUDY    55  46  71 S5        29.95R
PRESTON        MOCLDY    50  44  79 SE14      29.95F
$$
ABBREVIATIONS USED IN REMARKS
   TC - TEMPERATURES IN CELSIUS
  WCI - WIND CHILL INDEX
   HX - HEAT INDEX
  VSB - VISIBILITY
$$



USA.gov is the U.S. government's official web portal to all federal, state and local government web resources and services.